Eagle, AK

1:58 AM AKDT on June 24, 2017 (GMT -0800)
Eagle

Weather History for PAEG - December, 2012

Change the Weather History Date:

Thursday, December 27, 2012

  Actual Average (PABN) Record (PABN)
Temperature  
Mean Temperature -1 °F -  
Max Temperature 0 °F 3 °F 39 °F (1996)
Min Temperature -2 °F -2 °F - (2000)
Degree Days  
Heating Degree Days 66    
Moisture  
Dew Point -12 °F    
Average Humidity 61    
Maximum Humidity 63    
Minimum Humidity 60    
Precipitation  
Precipitation 0.00 in - - ()
Sea Level Pressure  
Sea Level Pressure 29.72 in    
Wind  
Wind Speed 13 mph (ESE)    
Max Wind Speed 18 mph    
Max Gust Speed 30 mph    
Visibility 10 miles    
Events      
Averages and records for this station are not official NWS values.
T = Trace of Precipitation, MM = Missing Value Source: NWS Daily Summary

Daily Weather History Graph

Daily Weather History Graph

Search for Another Location

Airport or City:

Trip Planner

Search our weather history database for the weather conditions in past years. The results will help you decide how hot, cold, wet, or windy it might be!

Date:

Astronomy

Dec. 27, 2012 Rise Set
Actual Time 10:30 AM AKST 2:21 PM AKST
Civil Twilight 9:07 AM AKST 3:45 PM AKST
Nautical Twilight 7:55 AM AKST 4:56 PM AKST
Astronomical Twilight 6:54 AM AKST 5:57 PM AKST
Moon 2:37 PM AKST (12/27) 9:24 AM AKST (12/27)
Length of Visible Light 6h 38m
Length of Day
3h 51m
Full, 100% of the Moon is Illuminated
Dec 27
Full
Dec 28
Full
Jan 4
Last Quarter
Jan 11
New
Jan 18
First Quarter

Hourly Weather History & Observations

Time (AKST) Temp. Windchill Dew Point Humidity Pressure Visibility Wind Dir Wind Speed Gust Speed Precip Events Conditions
12:53 AM -0.9 °F -19.1 °F -11.0 °F 62% 29.82 in 10.0 mi East 12.7 mph 24.2 mph N/A   Clear
1:53 AM -0.9 °F -19.1 °F -11.0 °F 62% 29.81 in 10.0 mi ESE 12.7 mph 21.9 mph N/A   Clear
3:53 AM -0.0 °F -18.0 °F -11.0 °F 60% 29.78 in 10.0 mi ESE 12.7 mph 23.0 mph N/A   Clear
4:53 AM -0.9 °F -19.1 °F -11.0 °F 62% 29.77 in 10.0 mi ESE 12.7 mph 19.6 mph N/A   Clear
5:53 AM -0.9 °F -20.6 °F -11.9 °F 60% 29.75 in 10.0 mi ESE 15.0 mph 27.6 mph N/A   Clear
6:53 AM -2.0 °F -18.7 °F -11.9 °F 63% 29.75 in 10.0 mi ESE 10.4 mph 20.7 mph N/A   Clear
7:53 AM -0.9 °F -19.1 °F -11.9 °F 60% 29.75 in 10.0 mi ESE 12.7 mph 23.0 mph N/A   Clear
8:53 AM -2.0 °F -20.5 °F -11.9 °F 63% 29.74 in 10.0 mi ESE 12.7 mph 25.3 mph N/A   Clear
9:53 AM -2.0 °F -19.6 °F -11.9 °F 63% 29.74 in 10.0 mi ESE 11.5 mph 21.9 mph N/A   Clear
10:53 AM -2.0 °F -21.2 °F -11.9 °F 63% 29.73 in 10.0 mi East 13.8 mph 25.3 mph N/A   Clear
11:53 AM -0.9 °F -20.6 °F -11.9 °F 60% 29.72 in 10.0 mi ESE 15.0 mph 25.3 mph N/A   Clear
12:53 PM -0.9 °F -20.6 °F -11.9 °F 60% 29.72 in 10.0 mi ESE 15.0 mph 25.3 mph N/A   Clear
1:53 PM -0.9 °F -21.2 °F -11.9 °F 60% 29.70 in 10.0 mi ESE 16.1 mph 24.2 mph N/A   Clear
2:53 PM -0.9 °F -21.9 °F -11.9 °F 60% 29.69 in 10.0 mi ESE 17.3 mph 26.5 mph N/A   Clear
3:53 PM -2.0 °F -21.9 °F -11.9 °F 63% 29.69 in 10.0 mi ESE 15.0 mph 27.6 mph N/A   Clear
4:53 PM -0.9 °F -19.1 °F -11.9 °F 60% 29.68 in 10.0 mi ESE 12.7 mph 25.3 mph N/A   Clear
5:53 PM -2.0 °F -21.2 °F -11.9 °F 63% 29.67 in 10.0 mi ESE 13.8 mph 27.6 mph N/A   Clear
6:53 PM -0.9 °F -22.4 °F -11.9 °F 60% 29.66 in 10.0 mi ESE 18.4 mph 29.9 mph N/A   Clear
8:53 PM -2.0 °F -21.2 °F -11.9 °F 63% 29.65 in 10.0 mi ESE 13.8 mph 23.0 mph N/A   Clear
9:53 PM -0.9 °F -19.1 °F -11.9 °F 60% 29.66 in 10.0 mi SE 12.7 mph 26.5 mph N/A   Clear
10:53 PM -2.0 °F -21.9 °F -11.9 °F 63% 29.67 in 10.0 mi ESE 15.0 mph 25.3 mph N/A   Clear
11:53 PM -0.9 °F -19.9 °F -11.9 °F 60% 29.67 in 10.0 mi ESE 13.8 mph 29.9 mph N/A   Partly Cloudy